Regional Weather Roundup
Issued by NWS

Home | Current Version | Previous Version | Text Only | Print | Product List | Glossary On
Versions: 1 2 3 4 5 6 7 8 9 10 11 12 13 14 15 16 17 18 19 20 21 22 23 24 25 26 27 28 29 30 31 32 33 34 35 36 37 38 39 40 41 42 43 44 45 46 47 48 49 50
000
ASUS43 KLSX 171959
RWRMO

WEATHER SUMMARY FOR MISSOURI
NATIONAL WEATHER SERVICE SPRINGFIELD MO
200 PM CST WED DEC 17 2014

NOTE: "FAIR" INDICATES FEW OR NO CLOUDS BELOW 12,000 FEET WITH NO
       SIGNIFICANT WEATHER AND/OR OBSTRUCTIONS TO VISIBILITY.
       CURRENT SKY AND/OR WEATHER CONDITIONS ARE NOT AVAILABLE FOR
       CHILLICOTHE AND FARMINGTON.

MOZ001>031-035>038-043-044-053-054-172100-
...NORTHERN AND WESTERN MISSOURI...

CITY           SKY/WX    TMP DP  RH WIND       PRES   REMARKS
KANSAS CTY INT CLOUDY    28  19  69 CALM      30.27F
KANSAS C DTWN  CLOUDY    31  19  61 N3        30.28F
LEE`S SUMMIT   CLOUDY    30  19  63 CALM      30.28F
ST JOSEPH      CLOUDY    29  19  66 N3        30.29F
CHILLICOTHE      N/A     28  20  71 NW3       30.32F
KIRKSVILLE     SUNNY     31  20  63 VRB3      30.29S

$$
MOZ066>068-077>081-088>096-101>105-172100-
...SOUTHWEST MISSOURI...

CITY           SKY/WX    TMP DP  RH WIND       PRES   REMARKS
SPRINGFIELD    CLOUDY    33  25  72 E5        30.23F WCI  29
JOPLIN         LGT RAIN  33  26  75 E8        30.22F WCI  26

$$
MOZ032>034-039>042-045>050-055>058-069>072-172100-
...CENTRAL MISSOURI...

CITY           SKY/WX    TMP DP  RH WIND       PRES   REMARKS
COLUMBIA       MOSUNNY   32  22  66 SW5       30.27F WCI  27
JEFFERSON CITY PTSUNNY   35  22  58 VRB7      30.29F WCI  29
ROLLA          CLOUDY    34  20  56 NW6       30.24F WCI  29
SEDALIA        CLOUDY    32  21  64 CALM      30.29F
OSAGE BEACH    CLOUDY    36  19  51 W3        30.28S

$$
MOZ051-052-059>065-172100-
...EAST CENTRAL MISSOURI...

CITY           SKY/WX    TMP DP  RH WIND       PRES   REMARKS
ST LOUIS INTL  PTSUNNY   38  24  57 NW5       30.28S
SPIRIT OF STL  PTSUNNY   39  24  55 NW3       30.27S

$$
MOZ072>076-082>087-097>100-106>115-172100-
...SOUTH CENTRAL AND SOUTHEAST MISSOURI...

CITY           SKY/WX    TMP DP  RH WIND       PRES   REMARKS
CAPE GIRARDEAU MOSUNNY   38  28  67 CALM      30.27F
FARMINGTON     SUNNY     39  25  56 SW3       30.26R
POPLAR BLUFF   PTSUNNY   39  25  57 NW3       30.27F
WEST PLAINS    CLOUDY    39  24  55 SW6       30.25F

$$



USA.gov is the U.S. government's official web portal to all federal, state and local government web resources and services.